Weather History for Tampa Macdill AFB, FL

Change the Weather History Date:

Thursday, February 14, 2013

  Actual Average Record
Temperature  
Mean Temperature 60 °F -  
Max Temperature 62 °F 70 °F 84 °F (1997)
Min Temperature 59 °F 52 °F 32 °F (2006)
Degree Days  
Heating Degree Days 4    
Growing Degree Days 10 (Base 50)    
Moisture  
Dew Point 60 °F    
Average Humidity 98    
Maximum Humidity 100    
Minimum Humidity 88    
Precipitation  
Precipitation 0.73 in - - ()
Sea Level Pressure  
Sea Level Pressure 30.02 in    
Wind  
Wind Speed 5 mph (NE)    
Max Wind Speed 13 mph    
Max Gust Speed 20 mph    
Visibility 9 miles    
Events Rain    
Averages and records for this station are not official NWS values.
T = Trace of Precipitation, MM = Missing Value Source: NWS Daily Summary

Daily Weather History Graph

Daily Weather History Graph

Search for Another Location

Airport:

Trip Planner

Search our weather history database for the weather conditions in past years. The results will help you decide how hot, cold, wet, or windy it might be!

Date:

Astronomy

Feb. 14, 2013 Rise Set
Actual Time 7:08 AM EST 6:20 PM EST
Civil Twilight 6:44 AM EST 6:44 PM EST
Nautical Twilight 6:16 AM EST 7:12 PM EST
Astronomical Twilight 5:49 AM EST 7:39 PM EST
Moon 9:38 AM EST (2/14) 10:50 PM EST (2/14)
Length of Visible Light 12h 00m
Length of Day
11h 12m
Waxing Crescent, 21% of the Moon is Illuminated
Feb 14
Waxing Crescent
Feb 17
First Quarter
Feb 25
Full
Mar 4
Last Quarter
Mar 11
New

Hourly Weather History & Observations

Time (EST) Temp. Dew Point Humidity Pressure Visibility Wind Dir Wind Speed Gust Speed Precip Events Conditions
12:58 AM 59.0 °F 57.2 °F 94% 30.00 in 10.0 mi ENE 4.6 mph - 0.00 in   Overcast
1:58 AM 60.8 °F 57.2 °F 88% 29.99 in 10.0 mi North 4.6 mph - N/A   Overcast
2:58 AM 60.8 °F 59.0 °F 94% 29.97 in 10.0 mi ESE 3.5 mph - N/A   Overcast
3:58 AM 62.6 °F 59.0 °F 88% 29.96 in 10.0 mi ENE 2.3 mph - N/A   Overcast
4:58 AM 62.6 °F 60.8 °F 94% 29.96 in 10.0 mi East 2.3 mph - N/A   Overcast
5:24 AM 62.6 °F 60.8 °F 94% 29.94 in 10.0 mi Calm Calm - N/A Rain Light Rain
5:34 AM 62.6 °F 60.8 °F 94% 29.95 in 10.0 mi North 4.6 mph - N/A   Overcast
5:58 AM 62.6 °F 59.0 °F 88% 29.97 in 10.0 mi NNE 4.6 mph - 0.00 in   Overcast
6:32 AM 60.8 °F 59.0 °F 94% 29.97 in 10.0 mi SE 1.2 mph - N/A Rain Light Rain
6:56 AM 60.8 °F 59.0 °F 94% 29.99 in 10.0 mi Calm Calm - N/A   Overcast
6:58 AM 60.8 °F 59.0 °F 94% 30.00 in 10.0 mi Calm Calm - 0.00 in   Overcast
7:58 AM 60.8 °F 60.8 °F 100% 30.01 in 10.0 mi NNE 1.2 mph - 0.01 in   Mostly Cloudy
8:07 AM 60.8 °F 60.8 °F 100% 30.01 in 10.0 mi Calm Calm - N/A Rain Light Rain
8:36 AM 62.6 °F 60.8 °F 94% 30.01 in 10.0 mi NE 2.3 mph - N/A   Overcast
8:57 AM 62.6 °F 60.8 °F 94% 30.01 in 10.0 mi ENE 4.6 mph - N/A Rain Light Rain
8:58 AM 62.6 °F 60.8 °F 94% 30.02 in 10.0 mi ENE 4.6 mph - 0.01 in Rain Light Rain
9:10 AM 62.6 °F 62.6 °F 100% 30.02 in 10.0 mi NNE 3.5 mph - N/A   Overcast
9:20 AM 62.6 °F 60.8 °F 94% 30.02 in 10.0 mi NNE 5.8 mph - N/A Rain Light Rain
9:32 AM 62.6 °F 60.8 °F 94% 30.04 in 10.0 mi North 4.6 mph - N/A   Overcast
9:58 AM 62.6 °F 60.8 °F 94% 30.05 in 10.0 mi NNE 6.9 mph - 0.00 in   Overcast
9:59 AM 62.6 °F 60.8 °F 94% 30.04 in 10.0 mi NNE 6.9 mph - N/A Rain Light Rain
10:14 AM 62.6 °F 60.8 °F 94% 30.04 in 10.0 mi North 8.1 mph - N/A   Overcast
10:55 AM 62.6 °F 60.8 °F 94% 30.05 in 10.0 mi North 10.4 mph 19.6 mph N/A Rain Light Rain
10:58 AM 62.6 °F 60.8 °F 94% 30.06 in 10.0 mi North 9.2 mph 19.6 mph 0.01 in Rain Light Rain
11:04 AM 62.6 °F 60.8 °F 94% 30.06 in 10.0 mi North 12.7 mph - N/A   Overcast
11:09 AM 62.6 °F 60.8 °F 94% 30.05 in 10.0 mi North 11.5 mph - N/A Rain Light Rain
11:29 AM 62.6 °F 60.8 °F 94% 30.06 in 2.5 mi North 8.1 mph - N/A Rain Heavy Rain
11:39 AM 60.8 °F 60.8 °F 100% 30.06 in 3.0 mi North 10.4 mph - N/A Rain Heavy Rain
11:54 AM 60.8 °F 60.8 °F 100% 30.05 in 4.0 mi NE 9.2 mph - N/A Rain Rain
11:58 AM 60.8 °F 60.8 °F 100% 30.06 in 5.0 mi NNE 5.8 mph - 0.23 in Rain Rain
12:18 PM 60.8 °F 60.8 °F 100% 30.06 in 3.0 mi NNE 5.8 mph - N/A Rain Heavy Rain
12:23 PM 60.8 °F 60.8 °F 100% 30.05 in 3.0 mi North 5.8 mph - N/A Rain Heavy Rain
12:28 PM 60.8 °F 60.8 °F 100% 30.05 in 4.0 mi North 6.9 mph - N/A Rain Heavy Rain
12:38 PM 60.8 °F 60.8 °F 100% 30.05 in 5.0 mi North 6.9 mph - N/A Rain Rain
12:43 PM 60.8 °F 60.8 °F 100% 30.05 in 5.0 mi North 5.8 mph - N/A Rain Heavy Rain
12:53 PM 60.8 °F 60.8 °F 100% 30.03 in 5.0 mi NNE 6.9 mph - N/A Rain Rain
12:58 PM 60.8 °F 60.8 °F 100% 30.03 in 6.0 mi NE 6.9 mph - 0.25 in Rain Rain
1:03 PM 60.8 °F 60.8 °F 100% 30.01 in 8.0 mi NE 8.1 mph - N/A Rain Light Rain
1:08 PM 60.8 °F 60.8 °F 100% 30.01 in 10.0 mi ENE 6.9 mph - N/A Rain Light Rain
1:14 PM 60.8 °F 60.8 °F 100% 30.02 in 10.0 mi NE 4.6 mph - N/A   Overcast
1:17 PM 60.8 °F 60.8 °F 100% 30.02 in 10.0 mi NE 4.6 mph - N/A Rain Light Rain
1:58 PM 62.6 °F 62.6 °F 100% 30.00 in 10.0 mi East 5.8 mph - 0.02 in Rain Light Rain
2:30 PM 60.8 °F 60.8 °F 100% 29.98 in 10.0 mi ENE 3.5 mph - N/A   Mostly Cloudy
2:39 PM 60.8 °F 60.8 °F 100% 29.99 in 10.0 mi NE 3.5 mph - N/A Rain Light Rain
2:58 PM 60.8 °F 60.8 °F 100% 30.00 in 10.0 mi Variable 3.5 mph - 0.02 in Rain Light Rain
3:09 PM 62.6 °F 62.6 °F 100% 29.99 in 10.0 mi Variable 2.3 mph - N/A   Overcast
3:14 PM 62.6 °F 62.6 °F 100% 30.00 in 10.0 mi Variable 2.3 mph - N/A Rain Light Rain
3:58 PM 62.6 °F 62.6 °F 100% 29.99 in 10.0 mi ENE 3.5 mph - 0.00 in   Light Drizzle
4:00 PM 62.6 °F 62.6 °F 100% 29.98 in 10.0 mi ENE 3.5 mph - N/A   Mostly Cloudy
4:19 PM 62.6 °F 62.6 °F 100% 29.99 in 10.0 mi NNE 3.5 mph - N/A Rain Light Rain
4:58 PM 60.8 °F 60.8 °F 100% 30.01 in 9.0 mi ENE 2.3 mph - 0.03 in Rain Light Rain
5:18 PM 60.8 °F 60.8 °F 100% 29.99 in 10.0 mi ENE 4.6 mph - N/A Rain Light Rain
5:28 PM 60.8 °F 60.8 °F 100% 29.99 in 10.0 mi ENE 3.5 mph - N/A Rain Light Rain
5:58 PM 60.8 °F 60.8 °F 100% 30.02 in 10.0 mi NNE 3.5 mph - 0.03 in Rain Light Rain
6:03 PM 60.8 °F 60.8 °F 100% 30.00 in 10.0 mi NE 4.6 mph - N/A Rain Light Rain
6:07 PM 60.8 °F 60.8 °F 100% 30.00 in 10.0 mi NE 4.6 mph - N/A   Mostly Cloudy
6:10 PM 60.8 °F 60.8 °F 100% 30.00 in 10.0 mi NE 4.6 mph - N/A Rain Light Rain
6:25 PM 60.8 °F 60.8 °F 100% 30.02 in 10.0 mi North 5.8 mph - N/A   Light Drizzle
6:35 PM 60.8 °F 60.8 °F 100% 30.03 in 10.0 mi NNW 6.9 mph - N/A Rain Light Rain
6:52 PM 60.8 °F 59.0 °F 94% 30.02 in 10.0 mi NNE 8.1 mph - N/A   Overcast
6:58 PM 59.0 °F 59.0 °F 100% 30.04 in 10.0 mi North 5.8 mph - 0.01 in   Overcast
7:03 PM 59.0 °F 59.0 °F 100% 30.03 in 10.0 mi North 5.8 mph - N/A   Overcast
7:38 PM 59.0 °F 59.0 °F 100% 30.04 in 10.0 mi NE 4.6 mph - N/A   Overcast
7:58 PM 59.0 °F 59.0 °F 100% 30.04 in 10.0 mi ENE 5.8 mph - N/A   Overcast
8:20 PM 59.0 °F 59.0 °F 100% 30.03 in 10.0 mi NE 2.3 mph - N/A Rain Light Rain
8:41 PM 59.0 °F 59.0 °F 100% 30.04 in 10.0 mi East 2.3 mph - N/A   Overcast
8:58 PM 59.0 °F 59.0 °F 100% 30.05 in 10.0 mi Variable 2.3 mph - 0.00 in   Overcast
9:16 PM 59.0 °F 59.0 °F 100% 30.02 in 10.0 mi SE 5.8 mph - N/A   Light Drizzle
9:32 PM 59.0 °F 59.0 °F 100% 30.01 in 10.0 mi SE 8.1 mph - N/A   Overcast
9:42 PM 59.0 °F 59.0 °F 100% 30.01 in 10.0 mi SE 6.9 mph - N/A   Light Drizzle
9:58 PM 59.0 °F 59.0 °F 100% 30.05 in 10.0 mi SSE 3.5 mph - 0.00 in Rain Light Rain
10:13 PM 60.8 °F 60.8 °F 100% 30.06 in 9.0 mi North 5.8 mph - N/A Rain Light Rain
10:53 PM 60.8 °F 60.8 °F 100% 30.02 in 6.0 mi SE 6.9 mph - N/A Rain Rain
10:58 PM 60.8 °F 60.8 °F 100% 30.03 in 7.0 mi SE 8.1 mph - 0.09 in Rain Light Rain
11:38 PM 59.0 °F 59.0 °F 100% 30.03 in 10.0 mi NNW 4.6 mph - N/A   Mostly Cloudy
11:42 PM 59.0 °F 59.0 °F 100% 30.02 in 10.0 mi North 4.6 mph - N/A   Light Drizzle
11:52 PM 59.0 °F 59.0 °F 100% 30.01 in 10.0 mi NNE 4.6 mph - N/A   Light Drizzle
11:58 PM 59.0 °F 59.0 °F 100% 30.02 in 10.0 mi ENE 3.5 mph - 0.02 in   Light Drizzle